Location: Béaulencourt
(50.0796°N, 2.8795°E)
Time: 00:47:45
(UTC+00:00)

Cosmos 304 Rocket - Pass Details

Date: 20 January 2026
Orbit: 669 x 676 km, 74.0° (Epoch: 17 February)

Event Time Altitude Azimuth Distance (km) Brightness Sun altitude
Rises 06:34:01 0° 211° (SSW) 3,018 7.0 -10.0°
Reaches altitude 10° 06:36:19 10° 214° (SW) 2,108 6.1 -9.6°
Maximum altitude 06:41:02 65° 297° (WNW) 749 3.7 -8.9°
Drops below altitude 10° 06:45:47 10° 19° (NNE) 2,122 6.3 -8.2°
Sets 06:48:07 0° 23° (NNE) 3,040 7.1 -7.9°
